User: anonymous   Login
Location: *
(45.1961°N, 1.9694°E)
Time: 02:50:29
(UTC+00:00)
Language:

Cosmos 1975 Rocket - Orbit

View from above orbital plane
View from above orbital plane
View from above satellite
View from above satellite

Ground track
Ground track

The orbit data is extracted from the following two-line orbital elements,

1 19574U 88093B   19295.83662399  .00000073  00000-0  59308-5 0  9996
2 19574  82.5328  63.1650 0022012 164.9668 309.0785 14.83309471676588
Epoch (UTC): 22 October 2019 20:04:44
Eccentricity: 0.0022012
inclination: 82.5328°
perigee height: 603 km
apogee height: 634 km
right ascension of ascending node: 63.1650°
argument of perigee: 164.9668°
revolutions per day: 14.83309471
mean anomaly at epoch: 309.0785°
orbit number at epoch: 67658

The dashed part of the orbit path shows where the satellite is in the earth's shadow,  

DLR